map of SJK home
Great Circle Mapper logo
SJK - Airport
Location
City:  São José dos Campos, São Paulo, Brazil
Name:Professor Urbano Ernesto Stumpf
ICAO / IATA:SBSJ / SJK

Details
Type:Airport (Aerodrome, Airfield)
Use:Public/Civil, Military
Latitude:23°13'41"S (-23.228171)
Longitude:45°51'46"W (-45.862738)
Datum:WGS 1984
Elevation:2120 ft (646 m)
Runways:1
Longest:8779 × 148 ft (2676 × 45 m), paved

Time
Time Zone:UTC-3 (DST-2)
Local Time:

Weather
METAR:SBSJ 260400Z 18003KT 8000 NSC 21/18 Q1016
TAF:SBSJ 260300Z 2606/2706 18005KT 7000 SCT015 TN17/2607Z TX25/2616Z PROB30 2606/2611 4000 RA BR SCT008 BKN020
BECMG 2612/2614 16005KT SCT020 PROB30 2619/2621 20010KT 5000 TSRA BKN020 FEW030CB
RMK PHD

Related Locations
Nearby:
Farthest:MMD: 12183 mi / 19606 km
Minami Daito Jima, Okinawa, JP

Find:

   beyond  
but within

Other Information
Maps:
NOTAMs:
Links:
Sources:

  
flag of Brazil
flag of São Paulo
  

Sectional Chart

Flight Planning
at skyvector.com

Satellite Image

Google Maps Satellite View

 

Copyright © 2004-2014 Karl L. Swartz. All rights reserved.
The Great Circle Mapper name and logo are trademarks of the Great Circle Mapper.
All other trademarks mentioned herein belong to their respective owners.
Please see credits for attibutions and further copyright information.

  Follow gcmap on Facebook Follow gcmap on Twitter

hCard Microformat

Geo Microformat